[[{"header":{"parameterUnit":"m.s-1","parameterCategory":1,"la1":30.2991,"la2":30.254,"lo1":-89.0895,"lo2":-89.0444,"dy":0.0017,"dx":0.0017,"nx":28,"ny":28,"refTime":"2025-06-17T09:00:00:Z","depth":0,"parameterNumber":2,"parameterNumberName":"U-component_of_WINDS"},"data":[0,0,0,0,0,0,0,0,0,0,0,0,0,0,0,0,0,0,0,0,0,0,0,0,0,0,0,0,0,0,0,0,0,0,0,0,0,0,0,0,0,0,0,0,0,0,0,0,0,0,0,0,0,0,0,0,0,0,0.1634,0.1635,0,0.1656,0.1656,0.1656,0.1622,0.1621,0.162,0.1619,0.1637,0.1639,0.164,0,0,0,0,0,0,0,0,0,0,0,0,0,0.1562,0.1564,0.1634,0.1635,0.1635,0.1656,0.1656,0.1656,0.1622,0.1621,0.162,0.1618,0.1637,0.1639,0.1641,0,0,0,0,0,0,0,0,0,0,0,0,0,0.1589,0.1564,0.1634,0.1621,0.162,0.1656,0.1656,0.1656,0.1623,0.1621,0.1619,0.1618,0.1636,0.1639,0.1641,0.169,0,0,0.1648,0.1649,0,0,0,0,0,0,0,0,0.1588,0.1592,0.1623,0.1622,0.1621,0.1635,0.1637,0.1667,0.1623,0.1622,0.1619,0.1617,0.1638,0.164,0.1647,0.1691,0.1692,0.1648,0.165,0.1651,0.1651,0,0,0,0,0,0,0,0.1586,0.1591,0.1643,0.1623,0.1622,0.1613,0.1615,0.1643,0.1639,0.1622,0.1619,0.1622,0.1637,0.1645,0.1648,0.1692,0.1648,0.165,0.1652,0.1653,0.1778,0.1779,0,0,0,0,0,0,0.1586,0.159,0.1642,0.1643,0.16,0.1615,0.1618,0.1632,0.1639,0.1638,0.1624,0.1621,0.1642,0.1645,0.1648,0.1707,0.1651,0.1653,0.1654,0.1776,0.1778,0.178,0,0,0,0,0,0,0.1585,0.1591,0.1641,0.1616,0.1622,0.1618,0.1635,0.1633,0.1642,0.164,0.1639,0.1633,0.1641,0.1645,0.168,0.1707,0.1654,0.1656,0.1773,0.1776,0.1779,0.1825,0,0,0,0,0,0,0.1583,0.1591,0.161,0.1617,0.1623,0.1674,0.1636,0.1635,0.1646,0.1642,0.1649,0.1648,0.164,0.1677,0.1683,0.1709,0.1658,0.1771,0.1775,0.1778,0.1821,0.1829,0.1836,0,0,0,0,0,0.158,0.1621,0.1611,0.1618,0.1647,0.1676,0.1679,0.1669,0.1648,0.1667,0.1667,0.1648,0.1703,0.1681,0.1687,0.1715,0.1769,0.1774,0.1778,0.1817,0.1827,0.1835,0,0,0,0,0,0,0.1617,0.1622,0.1611,0.1655,0.1665,0.167,0.1693,0.168,0.1695,0.1691,0.1677,0.1679,0.1717,0.1719,0.1694,0.1763,0.1733,0.1738,0.1761,0.177,0.1777,0.1776,0.166,0,0,0,0,0,0.163,0.1654,0.1656,0.1695,0.1701,0.1697,0.1708,0.17,0.171,0.1713,0.1715,0.1724,0.1744,0.1757,0.1774,0.1821,0.1822,0.1843,0.185,0.1856,0.1862,0.1887,0.1897,0.1794,0.1794,0.1794,0,0,0.1657,0.1663,0.1679,0.1703,0.171,0.1734,0.17,0.1727,0.1744,0.1717,0.1751,0.1753,0.1762,0.1804,0.1822,0.1807,0.189,0.1862,0.1867,0.1869,0.1892,0.1902,0.1911,0.1797,0.1797,0.1796,0,0,0.172,0.1727,0.176,0.1768,0.178,0.1777,0.1785,0.1792,0.1792,0.1826,0.1807,0.1827,0.186,0.1868,0.1876,0.1943,0.1927,0.1949,0.1988,0.2013,0.2021,0.2028,0.2052,0.2061,0.1954,0.1954,0.1954,0,0.1752,0.1789,0.1779,0.1808,0.1819,0.1796,0.183,0.1838,0.1854,0.1862,0.1845,0.1887,0.1892,0.1935,0.1952,0.1959,0.1968,0.1948,0.2021,0.2028,0.2034,0.2057,0.2066,0.1957,0.1957,0.1956,0.1956,0,0.1829,0.1854,0.188,0.1898,0.1912,0.1943,0.1937,0.1952,0.1943,0.1941,0.1977,0.1981,0.2,0.201,0.2,0.2052,0.2042,0.2023,0.1992,0.2047,0.2068,0.2077,0.1961,0.196,0.1959,0.1958,0,0,0.1914,0.1927,0.1937,0.1945,0.1957,0.1976,0.2006,0.2026,0.2039,0.2051,0.2076,0.2105,0.2088,0.2097,0.2088,0.211,0.2164,0.2088,0.2088,0.2103,0.2222,0.2237,0.2247,0.2153,0.2154,0.2156,0.2221,0,0.1977,0.2031,0.2023,0.2074,0.2098,0.2077,0.2103,0.2113,0.2112,0.2131,0.213,0.2152,0.2127,0.2133,0.2153,0.2153,0.2187,0.2148,0.2175,0.2177,0.2175,0.2258,0.2274,0.2336,0.223,0.2231,0.2232,0,0.2058,0.2075,0.2129,0.2138,0.2147,0.2171,0.2189,0.2208,0.2218,0.2216,0.2228,0.2215,0.2244,0.2213,0.2253,0.2226,0.2237,0.2238,0.224,0.2243,0.2208,0.2264,0.2355,0.2365,0.2245,0.2244,0.2243,0,0.2116,0.2152,0.219,0.2197,0.2208,0.2225,0.2231,0.2239,0.2252,0.2267,0.2275,0.2293,0.2303,0.2316,0.2309,0.2286,0.2351,0.2318,0.235,0.235,0.2364,0.2364,0.246,0.237,0.237,0.237,0.237,0,0.2188,0.2222,0.2216,0.2239,0.2277,0.2267,0.2304,0.2306,0.2314,0.2337,0.2319,0.234,0.2329,0.2349,0.2343,0.2378,0.2382,0.2381,0.2379,0.2383,0.2383,0.239,0.2386,0.2372,0.2372,0.2371,0.2371,0,0.226,0.2257,0.2297,0.2304,0.2307,0.2334,0.234,0.2362,0.236,0.2389,0.2395,0.2392,0.2415,0.2409,0.2433,0.2429,0.2473,0.2466,0.2471,0.2469,0.2501,0.2498,0.2605,0.2619,0.252,0.2521,0.2522,0,0.2306,0.2332,0.2343,0.2358,0.2365,0.2388,0.2402,0.2393,0.2407,0.2422,0.2441,0.2463,0.248,0.2517,0.2517,0.2536,0.2529,0.2565,0.2531,0.2535,0.253,0.2529,0.2532,0.2572,0.2573,0.2574,0.2574,0,0.2389,0.2386,0.2407,0.2428,0.2445,0.246,0.2474,0.2486,0.2479,0.2495,0.252,0.2533,0.2559,0.2581,0.2598,0.2602,0.2587,0.2585,0.2593,0.2598,0.26,0.26,0.249,0.2583,0.2582,0.2581,0.2581,0.258,0.2449,0.2472,0.2484,0.2508,0.2517,0.2531,0.2552,0.2554,0.2574,0.2595,0.2589,0.2616,0.2626,0.2648,0.2655,0.2676,0.2662,0.2674,0.2677,0.268,0.2685,0.2597,0.2678,0.2678,0.2678,0.2678,0.2678,0,0.2532,0.2539,0.2561,0.2582,0.26,0.2586,0.26,0.2617,0.2642,0.2653,0.2671,0.2699,0.272,0.2722,0.2741,0.2758,0.2752,0.2764,0.2762,0.2764,0.2695,0.2687,0.2768,0.2768,0.2768,0.2768,0.2768,0.2768,0.2577,0.2615,0.2614,0.2657,0.2663,0.2691,0.2701,0.2713,0.2722,0.2755,0.2773,0.2775,0.2782,0.2802,0.2821,0.2821,0.2829,0.2844,0.2841,0.2777,0.2768,0.276,0.2752,0.2846,0.2846,0.2908,0.2908,0.2909]},{"header":{"parameterUnit":"m.s-1","parameterCategory":1,"la1":30.2991,"la2":30.254,"lo1":-89.0895,"lo2":-89.0444,"dy":0.0017,"dx":0.0017,"nx":28,"ny":28,"refTime":"2025-06-17T09:00:00:Z","depth":0,"parameterNumber":3,"parameterNumberName":"V-component_of_WINDS"},"data":[0,0,0,0,0,0,0,0,0,0,0,0,0,0,0,0,0,0,0,0,0,0,0,0,0,0,0,0,0,0,0,0,0,0,0,0,0,0,0,0,0,0,0,0,0,0,0,0,0,0,0,0,0,0,0,0,0,0,5.4633,5.4633,0,5.4587,5.4587,5.4586,5.453,5.4529,5.4528,5.4527,5.4476,5.4475,5.4475,0,0,0,0,0,0,0,0,0,0,0,0,0,5.4671,5.467,5.4633,5.4633,5.4632,5.4587,5.4587,5.4586,5.453,5.4529,5.4528,5.4527,5.4476,5.4475,5.4475,0,0,0,0,0,0,0,0,0,0,0,0,0,5.4643,5.467,5.4633,5.4599,5.4595,5.4587,5.4587,5.4586,5.453,5.4529,5.4527,5.4526,5.4476,5.4475,5.4475,5.4496,0,0,5.4472,5.4472,0,0,0,0,0,0,0,0,5.4644,5.4641,5.4604,5.4601,5.4597,5.4563,5.4581,5.4555,5.453,5.4555,5.4527,5.4526,5.4506,5.4502,5.4496,5.4493,5.4491,5.4472,5.4471,5.4471,5.4471,0,0,0,0,0,0,0,5.4646,5.4643,5.4615,5.4604,5.46,5.4585,5.458,5.4576,5.4538,5.4552,5.4548,5.4544,5.4503,5.4497,5.4495,5.449,5.4472,5.4471,5.4471,5.447,5.4504,5.4505,0,0,0,0,0,0,5.4654,5.4645,5.4616,5.4613,5.4618,5.4585,5.4579,5.4575,5.4538,5.4531,5.4545,5.4541,5.4499,5.4496,5.4493,5.4516,5.4471,5.447,5.447,5.4502,5.4504,5.4506,0,0,0,0,0,0,5.4655,5.4652,5.4618,5.4628,5.4623,5.4586,5.4582,5.4575,5.4569,5.4532,5.4525,5.4546,5.4498,5.4494,5.4496,5.4513,5.447,5.4469,5.4501,5.4503,5.4505,5.4561,0,0,0,0,0,0,5.4656,5.4652,5.466,5.4629,5.4622,5.4623,5.4583,5.4575,5.4568,5.4563,5.4531,5.4525,5.4497,5.4498,5.4495,5.4511,5.4469,5.4499,5.4502,5.4504,5.4558,5.4565,5.4572,0,0,0,0,0,5.4658,5.4677,5.4661,5.4658,5.4632,5.4624,5.462,5.4589,5.457,5.4577,5.4554,5.4526,5.4512,5.4498,5.4495,5.4511,5.4498,5.4501,5.4504,5.4555,5.4564,5.4571,0,0,0,0,0,0,5.4709,5.4672,5.4654,5.4664,5.4648,5.4615,5.4623,5.4599,5.4587,5.4583,5.4544,5.4537,5.4544,5.4528,5.4513,5.453,5.4501,5.4503,5.4541,5.4549,5.4555,5.4559,5.4468,0,0,0,0,0,5.4722,5.472,5.4687,5.4699,5.4692,5.4659,5.4655,5.4633,5.4614,5.4606,5.4583,5.4565,5.4557,5.4552,5.4542,5.4556,5.4548,5.4565,5.4572,5.4578,5.458,5.4588,5.4595,5.4516,5.4516,5.4516,0,0,5.4748,5.4727,5.4728,5.4709,5.4694,5.4692,5.4654,5.4653,5.4651,5.4605,5.4607,5.459,5.4567,5.4575,5.4578,5.4562,5.4601,5.4582,5.4587,5.4586,5.4592,5.4599,5.4606,5.4518,5.4518,5.4517,0,0,5.4794,5.4778,5.4787,5.4773,5.4752,5.4731,5.4733,5.4704,5.4692,5.4693,5.4659,5.4656,5.4643,5.4628,5.4619,5.4664,5.4638,5.4662,5.4697,5.4704,5.4711,5.4716,5.4732,5.4739,5.4665,5.4665,5.4665,0,5.4828,5.4825,5.4794,5.4796,5.4789,5.475,5.4759,5.4747,5.4723,5.4719,5.4702,5.4686,5.4668,5.4673,5.4684,5.4678,5.468,5.4664,5.4713,5.4718,5.4722,5.4737,5.4743,5.4668,5.4667,5.4667,5.4667,0,5.4868,5.4867,5.4876,5.4856,5.485,5.4856,5.4826,5.4823,5.4803,5.4783,5.4785,5.4763,5.4749,5.4749,5.4727,5.4752,5.4743,5.472,5.4689,5.4733,5.4747,5.4752,5.4672,5.4671,5.467,5.4669,0,0,5.4942,5.4908,5.4912,5.4903,5.4879,5.4876,5.4881,5.4869,5.4868,5.4854,5.4856,5.4847,5.4827,5.4817,5.4794,5.4801,5.4839,5.4777,5.4776,5.479,5.4865,5.4883,5.489,5.4822,5.4823,5.4824,5.4867,0,5.4983,5.4989,5.4963,5.4975,5.4974,5.4939,5.4943,5.4928,5.4911,5.4907,5.4887,5.4882,5.4855,5.4849,5.4855,5.4833,5.4853,5.483,5.4823,5.4824,5.483,5.4897,5.4914,5.4956,5.4872,5.4873,5.4874,0,5.503,5.5021,5.5035,5.5012,5.501,5.5014,5.5002,5.4999,5.4982,5.4969,5.496,5.4935,5.4938,5.491,5.4913,5.4898,5.4894,5.4883,5.4884,5.4882,5.4851,5.4896,5.4968,5.4975,5.4882,5.4881,5.4881,0,5.5083,5.5074,5.5081,5.5075,5.5048,5.5052,5.5041,5.5023,5.5019,5.5009,5.5005,5.4995,5.4989,5.4982,5.4955,5.4937,5.4961,5.4931,5.495,5.4951,5.4956,5.4956,5.5029,5.4955,5.4954,5.4954,5.4954,0,5.5131,5.514,5.5105,5.5109,5.5119,5.509,5.51,5.5086,5.5071,5.5072,5.5041,5.5042,5.5007,5.5004,5.4983,5.4989,5.4987,5.4976,5.497,5.4979,5.498,5.4975,5.4971,5.4956,5.4956,5.4955,5.4955,0,5.519,5.5167,5.5173,5.5149,5.5143,5.5151,5.513,5.5133,5.5116,5.5117,5.5116,5.5087,5.5083,5.5056,5.5045,5.5031,5.5045,5.5033,5.5051,5.5047,5.5069,5.5067,5.514,5.5149,5.507,5.507,5.5071,0,5.5221,5.5228,5.5206,5.5205,5.5196,5.5195,5.5191,5.5163,5.5161,5.5144,5.5149,5.5143,5.5137,5.5132,5.511,5.5102,5.5089,5.5116,5.5088,5.5097,5.509,5.509,5.5091,5.5121,5.5122,5.5123,5.5124,0,5.5279,5.5269,5.5265,5.5258,5.5255,5.5248,5.5239,5.524,5.5209,5.5208,5.5204,5.52,5.5191,5.5185,5.5174,5.5162,5.5138,5.5134,5.5138,5.5146,5.5156,5.5151,5.5067,5.5131,5.513,5.513,5.513,5.5129,5.5325,5.533,5.5317,5.5314,5.5305,5.5298,5.5301,5.5285,5.5282,5.5274,5.5257,5.5257,5.5242,5.5225,5.5216,5.5215,5.52,5.5206,5.5208,5.5209,5.5214,5.5157,5.5212,5.5212,5.5212,5.5212,5.5212,0,5.5381,5.5372,5.537,5.536,5.5359,5.5339,5.5329,5.5329,5.5329,5.5319,5.5314,5.5311,5.5307,5.5286,5.528,5.5283,5.5272,5.5282,5.5281,5.5279,5.5227,5.5224,5.5291,5.5291,5.5291,5.5291,5.5291,5.5291,5.541,5.5419,5.5407,5.5412,5.5402,5.5403,5.5399,5.5393,5.5384,5.5383,5.538,5.5368,5.5353,5.5346,5.5341,5.5335,5.5334,5.5348,5.5339,5.529,5.5282,5.5275,5.5272,5.5348,5.5348,5.5391,5.5391,5.5391]}]]